This is the latest recevied weather packets stored in our database for station/object KM5R. If no packets are shown the sender has not sent any weather packets the latest 10 day(s).
| Time | Temp. | Humidity | Pressure | Rain* | Wind** | Luminosity | Snow |
|---|---|---|---|---|---|---|---|
| 1777725034 | 11.11° C | 80% | 1023.1 hPa | 0 mm | - | 40 W/m² | - |
| 1777724731 | 10.56° C | 80% | 1023 hPa | 0 mm | - | 33 W/m² | - |
| 1777724428 | 10.56° C | 81% | 1023 hPa | 0 mm | - | 24 W/m² | - |
| 1777724125 | 10.56° C | 81% | 1022.9 hPa | 0 mm | - | 20 W/m² | - |
| 1777723823 | 10° C | 81% | 1022.7 hPa | 0 mm | - | 16 W/m² | - |
| 1777723519 | 10° C | 82% | 1022.6 hPa | 0 mm | - | 14 W/m² | - |
| 1777723216 | 10° C | 82% | 1022.7 hPa | 0 mm | - | 10 W/m² | - |
| 1777722914 | 10° C | 82% | 1022.6 hPa | 0 mm | - | 7 W/m² | - |
| 1777722609 | 10° C | 82% | 1022.6 hPa | 0 mm | - | 4 W/m² | - |
| 1777722306 | 10° C | 82% | 1022.5 hPa | 0 mm | - | 2 W/m² | - |
| 1777722003 | 10° C | 82% | 1022.3 hPa | 0 mm | - | 1 W/m² | - |
| 1777721700 | 10° C | 82% | 1022.2 hPa | 0 mm | - | 0 W/m² | - |
| 1777721399 | 10° C | 82% | 1022.2 hPa | 0 mm | - | 0 W/m² | - |
| 1777721096 | 10° C | 82% | 1022.3 hPa | 0 mm | - | 0 W/m² | - |
| 1777720794 | 10° C | 82% | 1022.3 hPa | 0 mm | - | 0 W/m² | - |
| 1777720491 | 10° C | 82% | 1022 hPa | 0 mm | - | 0 W/m² | - |
| 1777720188 | 10° C | 82% | 1022 hPa | 0 mm | - | 0 W/m² | - |
| 1777719886 | 10° C | 82% | 1021.9 hPa | 0 mm | - | 0 W/m² | - |
| 1777719583 | 10° C | 82% | 1021.9 hPa | 0 mm | - | 0 W/m² | - |
| 1777719280 | 10° C | 82% | 1021.9 hPa | 0 mm | - | 0 W/m² | - |
| 1777718978 | 10° C | 82% | 1021.8 hPa | 0 mm | - | 0 W/m² | - |
| 1777718675 | 10° C | 82% | 1021.5 hPa | 0 mm | - | 0 W/m² | - |
| 1777718372 | 10° C | 82% | 1021.7 hPa | 0 mm | - | 0 W/m² | - |
| 1777718070 | 10° C | 82% | 1021.5 hPa | 0 mm | - | 0 W/m² | - |
| 1777717767 | 10° C | 82% | 1021.4 hPa | 0 mm | - | 0 W/m² | - |
* Rain latest hour (hover to see other rain measurements)
** Current wind speed in m/s (hover to see current wind gust speed)